Location: Dover
(39.1580°N, 75.5250°W)
Time: 17:34:24
(UTC-04:00)

SeaSat 1 - Visible Passes

Search period start: 21 October 2014 00:00
Search period end: 31 October 2014 00:00
Orbit: 747 x 749 km, 108.0° (Epoch: 21 October)

Date Brightness Start Highest point End Pass type
(mag) Time Alt. Az. Time Alt. Az. Time Alt. Az.
22 Oct 5.1 18:42:56 10° NNW 18:45:21 14° NW 18:47:45 10° WNW visible
24 Oct 5.2 18:57:54 10° NNW 18:59:51 12° NW 19:01:47 10° WNW visible
26 Oct 5.3 19:13:01 10° NNW 19:14:20 11° NW 19:15:39 10° WNW visible
27 Oct 4.5 18:29:23 10° N 18:33:24 25° NW 18:37:23 10° WSW visible
29 Oct 4.7 18:44:06 10° N 18:47:54 23° NW 18:51:42 10° WSW visible
